Time,TemperatureF,DewpointF,PressureIn,WindDirection,WindDirectionDegrees,WindSpeedMPH,WindSpeedGustMPH,Humidity,HourlyPrecipIn,Conditions,Clouds,dailyrainin,SoftwareType,DateUTC
2013-07-10 00:00:00,76.3,67.9,29.95,SSE,150,0.9,3.0,75,0.00,,---,0.00,VWS V14.01,2013-07-10 04:00:00,
2013-07-10 00:01:00,75.2,66.8,29.95,SE,129,0.0,3.0,75,0.00,,---,0.00,VWS V14.01,2013-07-10 04:01:00,
2013-07-10 00:06:00,75.9,67.7,29.95,SSE,148,0.0,0.0,76,0.00,,---,0.00,VWS V14.01,2013-07-10 04:06:00,
2013-07-10 00:11:00,76.1,68.1,29.95,SSE,150,1.7,3.0,76,0.00,,---,0.00,VWS V14.01,2013-07-10 04:11:00,
2013-07-10 00:16:00,75.8,68.0,29.95,WSW,243,1.6,1.6,77,0.00,,---,0.00,VWS V14.01,2013-07-10 04:16:00,
2013-07-10 00:21:00,74.8,67.1,29.95,West,273,1.2,1.4,77,0.00,,---,0.00,VWS V14.01,2013-07-10 04:21:00,
2013-07-10 00:26:00,75.2,67.7,29.96,NNW,343,2.9,3.0,78,0.00,,---,0.00,VWS V14.01,2013-07-10 04:26:00,
2013-07-10 00:31:00,75.8,68.3,29.95,SSW,194,0.7,0.7,78,0.00,,---,0.00,VWS V14.01,2013-07-10 04:31:00,
2013-07-10 00:36:00,76.2,68.7,29.95,SW,221,1.4,1.4,78,0.00,,---,0.00,VWS V14.01,2013-07-10 04:36:00,
2013-07-10 00:41:00,75.4,68.0,29.95,SSW,204,3.0,3.0,78,0.00,,---,0.00,VWS V14.01,2013-07-10 04:41:00,
2013-07-10 00:46:00,76.3,68.9,29.95,SW,222,2.9,3.8,78,0.00,,---,0.00,VWS V14.01,2013-07-10 04:46:00,
2013-07-10 00:51:00,75.3,67.9,29.95,SSE,156,2.7,3.7,78,0.00,,---,0.00,VWS V14.01,2013-07-10 04:51:00,
2013-07-10 00:56:00,76.2,68.8,29.95,SSE,152,2.5,2.9,78,0.00,,---,0.00,VWS V14.01,2013-07-10 04:56:00,
2013-07-10 01:01:00,75.0,67.8,29.95,SSW,207,6.0,6.0,78,0.00,,---,0.00,VWS V14.01,2013-07-10 05:01:00,
2013-07-10 01:06:00,76.0,68.9,29.95,SSW,204,7.0,7.0,79,0.00,,---,0.00,VWS V14.01,2013-07-10 05:06:00,
2013-07-10 01:11:00,75.2,68.2,29.95,WSW,257,8.1,8.1,79,0.00,,---,0.00,VWS V14.01,2013-07-10 05:11:00,
2013-07-10 01:16:00,75.3,68.2,29.95,SSW,202,8.7,8.7,79,0.00,,---,0.00,VWS V14.01,2013-07-10 05:16:00,
2013-07-10 01:21:00,75.2,68.1,29.94,South,187,3.5,3.5,79,0.00,,---,0.00,VWS V14.01,2013-07-10 05:21:00,
2013-07-10 01:26:00,75.5,68.4,29.94,SSW,198,7.0,7.1,79,0.00,,---,0.00,VWS V14.01,2013-07-10 05:26:00,
2013-07-10 01:31:00,74.6,67.8,29.94,SW,217,4.3,5.9,79,0.00,,---,0.00,VWS V14.01,2013-07-10 05:31:00,
2013-07-10 01:36:00,75.2,68.7,29.94,South,177,4.4,5.8,80,0.00,,---,0.00,VWS V14.01,2013-07-10 05:36:00,
2013-07-10 01:41:00,74.5,68.5,29.93,SSW,200,5.4,6.4,82,0.00,,---,0.00,VWS V14.01,2013-07-10 05:41:00,
2013-07-10 01:46:00,74.0,68.4,29.93,SSW,197,3.4,5.3,83,0.00,,---,0.00,VWS V14.01,2013-07-10 05:46:00,
2013-07-10 01:51:00,74.6,69.2,29.93,SSW,202,5.2,6.0,83,0.00,,---,0.00,VWS V14.01,2013-07-10 05:51:00,
2013-07-10 01:56:00,74.1,68.9,29.93,SSW,204,5.1,7.0,84,0.00,,---,0.00,VWS V14.01,2013-07-10 05:56:00,
2013-07-10 02:01:00,73.2,68.2,29.93,SSW,193,2.5,3.3,84,0.00,,---,0.00,VWS V14.01,2013-07-10 06:01:00,
2013-07-10 02:05:00,73.6,68.7,29.93,South,188,1.9,2.3,85,0.00,,---,0.00,VWS V14.01,2013-07-10 06:05:00,
2013-07-10 02:10:00,72.6,67.9,29.93,SSW,212,5.3,6.6,85,0.00,,---,0.00,VWS V14.01,2013-07-10 06:10:00,
2013-07-10 02:15:00,73.9,69.4,29.93,West,264,4.7,8.6,86,0.00,,---,0.00,VWS V14.01,2013-07-10 06:15:00,
2013-07-10 02:20:00,72.6,68.4,29.93,WSW,257,3.9,5.7,87,0.00,,---,0.00,VWS V14.01,2013-07-10 06:20:00,
2013-07-10 02:25:00,72.5,68.6,29.93,SW,235,4.0,6.2,88,0.00,,---,0.00,VWS V14.01,2013-07-10 06:25:00,
2013-07-10 02:30:00,73.6,69.8,29.92,North,359,0.0,8.7,88,0.00,,---,0.00,VWS V14.01,2013-07-10 06:30:00,
2013-07-10 02:35:00,72.4,68.8,29.92,North,359,0.3,8.1,89,0.00,,---,0.00,VWS V14.01,2013-07-10 06:35:00,
2013-07-10 02:40:00,72.3,68.8,29.92,NE,44,9.3,9.4,89,0.00,,---,0.00,VWS V14.01,2013-07-10 06:40:00,
2013-07-10 02:45:00,72.5,69.2,29.91,SE,142,5.2,6.1,89,0.00,,---,0.00,VWS V14.01,2013-07-10 06:45:00,
2013-07-10 02:50:00,71.6,68.4,29.91,South,187,0.0,5.7,90,0.00,,---,0.00,VWS V14.01,2013-07-10 06:50:00,
2013-07-10 02:55:00,70.8,67.7,29.91,SSW,200,3.9,4.7,90,0.00,,---,0.00,VWS V14.01,2013-07-10 06:55:00,
2013-07-10 03:00:00,71.0,67.9,29.91,South,179,4.2,5.8,90,0.00,,---,0.00,VWS V14.01,2013-07-10 07:00:00,
2013-07-10 03:05:00,71.7,68.8,29.90,SSE,158,5.6,6.2,90,0.00,,---,0.00,VWS V14.01,2013-07-10 07:05:00,
2013-07-10 03:10:00,72.1,69.4,29.90,North,359,0.2,7.5,91,0.00,,---,0.00,VWS V14.01,2013-07-10 07:10:00,
2013-07-10 03:15:00,71.2,68.6,29.91,WSW,249,3.7,5.7,91,0.00,,---,0.00,VWS V14.01,2013-07-10 07:15:00,
2013-07-10 03:20:00,71.9,69.5,29.90,North,359,0.2,4.3,92,0.00,,---,0.00,VWS V14.01,2013-07-10 07:20:00,
2013-07-10 03:25:00,71.5,69.2,29.91,North,359,0.0,0.2,92,0.00,,---,0.00,VWS V14.01,2013-07-10 07:25:00,
2013-07-10 03:30:00,71.2,69.1,29.91,North,359,0.0,1.1,93,0.00,,---,0.00,VWS V14.01,2013-07-10 07:30:00,
2013-07-10 03:35:00,71.6,69.6,29.91,North,359,0.0,0.0,93,0.00,,---,0.00,VWS V14.01,2013-07-10 07:35:00,
2013-07-10 03:40:00,72.2,70.2,29.91,North,359,0.0,0.0,94,0.00,,---,0.00,VWS V14.01,2013-07-10 07:40:00,
2013-07-10 03:45:00,72.4,70.5,29.90,North,359,0.0,0.0,94,0.00,,---,0.00,VWS V14.01,2013-07-10 07:45:00,
2013-07-10 03:50:00,71.8,70.0,29.90,North,359,0.0,0.2,94,0.00,,---,0.00,VWS V14.01,2013-07-10 07:50:00,
2013-07-10 03:55:00,71.6,69.8,29.90,North,359,1.7,6.9,94,0.00,,---,0.00,VWS V14.01,2013-07-10 07:55:00,
2013-07-10 04:00:00,71.9,70.1,29.91,WSW,248,3.5,3.5,94,72.91,,---,0.00,VWS V14.01,2013-07-10 08:00:00,
2013-07-10 04:05:00,72.2,70.3,29.90,North,359,3.1,6.3,94,0.00,,---,0.00,VWS V14.01,2013-07-10 08:05:00,
2013-07-10 04:10:00,72.4,70.4,29.90,SSE,165,2.0,3.2,94,0.00,,---,0.00,VWS V14.01,2013-07-10 08:10:00,
2013-07-10 04:15:00,72.4,70.4,29.90,SSW,211,0.0,0.0,94,0.00,,---,0.00,VWS V14.01,2013-07-10 08:15:00,
2013-07-10 04:20:00,71.2,69.4,29.90,SSW,201,3.5,7.3,94,0.00,,---,0.00,VWS V14.01,2013-07-10 08:20:00,
2013-07-10 04:25:00,72.2,70.5,29.89,North,359,0.0,0.0,94,0.00,,---,0.00,VWS V14.01,2013-07-10 08:25:00,
2013-07-10 04:30:00,71.9,70.3,29.89,SSW,210,0.0,0.4,95,0.00,,---,0.00,VWS V14.01,2013-07-10 08:30:00,
2013-07-10 04:35:00,71.6,70.1,29.90,North,359,0.0,0.0,95,0.00,,---,0.00,VWS V14.01,2013-07-10 08:35:00,
2013-07-10 04:40:00,71.5,70.0,29.90,SW,235,1.7,4.7,95,0.00,,---,0.00,VWS V14.01,2013-07-10 08:40:00,
2013-07-10 04:45:00,72.0,70.5,29.89,ENE,72,2.4,4.0,95,0.00,,---,0.00,VWS V14.01,2013-07-10 08:45:00,
2013-07-10 04:50:00,71.5,70.0,29.90,WSW,239,2.9,3.7,95,0.00,,---,0.00,VWS V14.01,2013-07-10 08:50:00,
2013-07-10 04:55:00,71.6,70.1,29.89,SSW,212,3.7,3.7,95,0.00,,---,0.00,VWS V14.01,2013-07-10 08:55:00,
2013-07-10 05:00:00,70.9,69.5,29.89,West,271,2.1,2.2,95,0.00,,---,0.00,VWS V14.01,2013-07-10 09:00:00,
2013-07-10 05:05:00,71.8,70.4,29.90,WSW,243,0.9,1.6,95,0.00,,---,0.00,VWS V14.01,2013-07-10 09:05:00,
2013-07-10 05:10:00,71.3,69.9,29.90,South,188,0.0,0.0,95,0.00,,---,0.00,VWS V14.01,2013-07-10 09:10:00,
2013-07-10 05:15:00,72.4,71.0,29.90,North,359,0.0,0.0,95,0.00,,---,0.00,VWS V14.01,2013-07-10 09:15:00,
2013-07-10 05:20:00,71.5,70.1,29.90,East,94,1.4,2.4,95,0.00,,---,0.00,VWS V14.01,2013-07-10 09:20:00,
2013-07-10 05:25:00,72.0,70.7,29.90,East,94,2.2,2.2,96,0.00,,---,0.00,VWS V14.01,2013-07-10 09:25:00,
2013-07-10 05:30:00,71.2,69.9,29.89,SSW,205,0.4,5.7,96,46.06,,---,0.00,VWS V14.01,2013-07-10 09:30:00,
2013-07-10 05:35:00,72.2,70.9,29.90,North,359,0.0,0.0,96,0.00,,---,0.00,VWS V14.01,2013-07-10 09:35:00,
2013-07-10 05:40:00,71.9,70.6,29.90,SSW,198,0.4,1.9,96,0.00,,---,0.00,VWS V14.01,2013-07-10 09:40:00,
2013-07-10 05:45:00,72.3,71.0,29.90,SW,214,1.7,1.7,96,0.00,,---,0.00,VWS V14.01,2013-07-10 09:45:00,
2013-07-10 05:50:00,71.2,70.0,29.90,SW,235,1.7,2.7,96,0.00,,---,0.00,VWS V14.01,2013-07-10 09:50:00,
2013-07-10 05:55:00,72.3,71.1,29.90,SW,215,0.0,0.8,96,0.00,,---,0.00,VWS V14.01,2013-07-10 09:55:00,
2013-07-10 06:00:00,71.0,69.8,29.90,WSW,246,0.0,2.7,96,0.00,,---,0.00,VWS V14.01,2013-07-10 10:00:00,
2013-07-10 06:05:00,72.0,70.8,29.90,North,350,0.0,0.0,96,0.00,,---,0.00,VWS V14.01,2013-07-10 10:05:00,
2013-07-10 06:10:00,71.2,70.1,29.90,North,350,0.0,0.0,96,0.00,,---,0.00,VWS V14.01,2013-07-10 10:10:00,
2013-07-10 06:15:00,71.5,70.4,29.90,North,350,0.0,0.0,96,0.00,,---,0.00,VWS V14.01,2013-07-10 10:15:00,
2013-07-10 06:20:00,71.1,70.0,29.90,North,359,0.0,0.6,96,0.00,,---,0.00,VWS V14.01,2013-07-10 10:20:00,
2013-07-10 06:25:00,72.4,71.3,29.90,North,359,1.9,2.4,96,0.00,,---,0.00,VWS V14.01,2013-07-10 10:25:00,
2013-07-10 06:30:00,71.3,70.2,29.90,North,359,0.0,0.0,96,53.96,,---,0.00,VWS V14.01,2013-07-10 10:30:00,
2013-07-10 06:35:00,72.2,71.1,29.90,North,359,0.2,0.2,96,0.00,,---,0.00,VWS V14.01,2013-07-10 10:35:00,
2013-07-10 06:40:00,71.8,70.7,29.90,North,359,1.6,1.6,96,0.00,,---,0.00,VWS V14.01,2013-07-10 10:40:00,
2013-07-10 06:45:00,72.4,71.3,29.90,North,359,0.0,3.5,96,0.00,,---,0.00,VWS V14.01,2013-07-10 10:45:00,
2013-07-10 06:50:00,72.3,71.2,29.90,North,359,0.0,0.0,96,0.00,,---,0.00,VWS V14.01,2013-07-10 10:50:00,
2013-07-10 06:55:00,72.3,71.1,29.90,West,277,3.6,4.9,96,0.00,,---,0.00,VWS V14.01,2013-07-10 10:55:00,
2013-07-10 07:00:00,72.4,71.1,29.90,SW,232,6.0,6.7,96,0.00,,---,0.00,VWS V14.01,2013-07-10 11:00:00,
2013-07-10 07:05:00,73.7,72.3,29.90,SW,229,2.8,3.6,95,0.00,,---,0.00,VWS V14.01,2013-07-10 11:05:00,
2013-07-10 07:10:00,74.0,72.6,29.90,North,359,0.0,0.0,95,0.00,,---,0.00,VWS V14.01,2013-07-10 11:10:00,
2013-07-10 07:15:00,73.1,71.7,29.90,WSW,245,5.8,6.8,95,0.00,,---,0.00,VWS V14.01,2013-07-10 11:15:00,
2013-07-10 07:20:00,73.7,72.2,29.90,SW,224,0.0,0.0,95,0.00,,---,0.00,VWS V14.01,2013-07-10 11:20:00,
2013-07-10 07:25:00,74.6,72.9,29.90,SSW,212,1.6,1.6,94,0.00,,---,0.00,VWS V14.01,2013-07-10 11:25:00,
2013-07-10 07:30:00,74.3,72.2,29.90,SSW,212,0.0,0.0,93,53.96,,---,0.00,VWS V14.01,2013-07-10 11:30:00,
2013-07-10 07:35:00,75.0,72.3,29.90,SSW,212,0.0,0.0,91,0.00,,---,0.00,VWS V14.01,2013-07-10 11:35:00,
2013-07-10 07:40:00,74.7,71.7,29.89,SSW,212,0.0,0.0,90,0.00,,---,0.00,VWS V14.01,2013-07-10 11:40:00,
2013-07-10 07:45:00,75.1,72.0,29.89,North,359,0.2,0.2,90,0.00,,---,0.00,VWS V14.01,2013-07-10 11:45:00,
2013-07-10 07:50:00,74.6,71.8,29.89,North,359,0.0,0.0,91,0.00,,---,0.00,VWS V14.01,2013-07-10 11:50:00,
2013-07-10 07:55:00,74.9,71.9,29.89,North,359,0.0,0.0,90,0.00,,---,0.00,VWS V14.01,2013-07-10 11:55:00,
2013-07-10 08:00:00,75.4,72.0,29.89,North,359,0.0,5.7,89,0.00,,---,0.00,VWS V14.01,2013-07-10 12:00:00,
2013-07-10 08:05:00,76.2,72.5,29.89,North,359,8.9,8.9,88,0.00,,---,0.00,VWS V14.01,2013-07-10 12:05:00,
2013-07-10 08:10:00,76.2,72.3,29.89,North,359,0.0,0.0,88,0.00,,---,0.00,VWS V14.01,2013-07-10 12:10:00,
2013-07-10 08:15:00,76.7,72.8,29.89,North,359,0.9,0.9,88,0.00,,---,0.00,VWS V14.01,2013-07-10 12:15:00,
2013-07-10 08:20:00,76.2,72.0,29.89,NNW,332,0.0,0.0,87,0.00,,---,0.00,VWS V14.01,2013-07-10 12:20:00,
2013-07-10 08:25:00,76.4,71.9,29.89,North,359,0.0,0.0,86,0.00,,---,0.00,VWS V14.01,2013-07-10 12:25:00,
2013-07-10 08:30:00,76.2,71.6,29.89,North,359,7.4,8.3,86,0.00,,---,0.00,VWS V14.01,2013-07-10 12:30:00,
2013-07-10 08:35:00,76.3,71.8,29.88,North,359,0.0,0.0,86,0.00,,---,0.00,VWS V14.01,2013-07-10 12:35:00,
2013-07-10 08:40:00,77.3,72.4,29.88,North,359,0.0,9.3,85,0.00,,---,0.00,VWS V14.01,2013-07-10 12:40:00,
2013-07-10 08:45:00,77.4,72.0,29.88,North,359,7.0,9.5,83,0.00,,---,0.00,VWS V14.01,2013-07-10 12:45:00,
2013-07-10 08:50:00,78.4,73.2,29.88,West,280,6.2,10.3,84,0.00,,---,0.00,VWS V14.01,2013-07-10 12:50:00,
2013-07-10 08:55:00,77.8,72.5,29.88,WNW,287,0.0,0.0,84,0.00,,---,0.00,VWS V14.01,2013-07-10 12:55:00,
2013-07-10 08:59:00,78.9,73.1,29.88,North,359,0.0,0.0,82,0.00,,---,0.00,VWS V14.01,2013-07-10 12:59:00,
2013-07-10 09:04:00,77.9,72.1,29.88,North,359,0.0,0.0,82,0.00,,---,0.00,VWS V14.01,2013-07-10 13:04:00,
2013-07-10 09:09:00,78.1,72.8,29.88,North,359,0.0,0.0,84,0.00,,---,0.00,VWS V14.01,2013-07-10 13:09:00,
2013-07-10 09:14:00,77.0,71.4,29.88,SSW,201,6.5,10.3,83,0.00,,---,0.00,VWS V14.01,2013-07-10 13:14:00,
2013-07-10 09:19:00,77.7,72.5,29.88,WSW,253,6.0,6.0,84,0.00,,---,0.00,VWS V14.01,2013-07-10 13:19:00,
2013-07-10 09:24:00,78.0,73.0,29.88,SSW,201,3.2,5.4,85,0.00,,---,0.00,VWS V14.01,2013-07-10 13:24:00,
2013-07-10 09:29:00,78.3,73.0,29.88,North,359,5.2,9.1,84,0.00,,---,0.00,VWS V14.01,2013-07-10 13:29:00,
2013-07-10 09:34:00,78.1,72.9,29.88,North,359,3.7,9.6,84,0.00,,---,0.00,VWS V14.01,2013-07-10 13:34:00,
2013-07-10 09:39:00,78.3,72.6,29.88,North,359,7.0,7.0,83,0.00,,---,0.00,VWS V14.01,2013-07-10 13:39:00,
2013-07-10 09:44:00,78.1,72.1,29.88,North,359,0.0,5.7,82,0.00,,---,0.00,VWS V14.01,2013-07-10 13:44:00,
2013-07-10 09:49:00,78.8,72.7,29.87,North,359,0.0,6.8,82,0.00,,---,0.00,VWS V14.01,2013-07-10 13:49:00,
2013-07-10 09:54:00,78.2,72.2,29.88,North,359,0.0,0.0,82,0.00,,---,0.00,VWS V14.01,2013-07-10 13:54:00,
2013-07-10 09:59:00,78.2,72.1,29.87,North,359,9.6,9.6,82,0.00,,---,0.00,VWS V14.01,2013-07-10 13:59:00,
2013-07-10 10:04:00,77.8,71.9,29.88,North,359,0.0,0.0,82,0.00,,---,0.00,VWS V14.01,2013-07-10 14:04:00,
2013-07-10 10:09:00,78.2,72.5,29.88,North,359,0.0,0.0,83,0.00,,---,0.00,VWS V14.01,2013-07-10 14:09:00,
2013-07-10 10:14:00,78.3,72.8,29.88,North,359,0.0,0.0,83,0.00,,---,0.00,VWS V14.01,2013-07-10 14:14:00,
2013-07-10 10:19:00,77.7,72.3,29.88,North,359,0.0,0.0,84,0.00,,---,0.00,VWS V14.01,2013-07-10 14:19:00,
2013-07-10 10:24:00,78.8,73.3,29.88,North,359,0.0,0.0,83,0.00,,---,0.00,VWS V14.01,2013-07-10 14:24:00,
2013-07-10 10:29:00,77.0,71.5,29.88,North,359,0.0,0.0,83,0.00,,---,0.00,VWS V14.01,2013-07-10 14:29:00,
2013-07-10 10:34:00,78.4,72.5,29.88,WNW,288,7.1,10.4,82,0.00,,---,0.00,VWS V14.01,2013-07-10 14:34:00,
2013-07-10 10:39:00,78.1,72.4,29.88,North,359,5.7,6.0,83,0.00,,---,0.00,VWS V14.01,2013-07-10 14:39:00,
2013-07-10 10:44:00,77.5,71.8,29.88,North,359,6.1,7.8,83,53.96,,---,0.00,VWS V14.01,2013-07-10 14:44:00,
2013-07-10 10:49:00,77.8,72.2,29.88,ENE,73,3.0,6.7,83,0.00,,---,0.00,VWS V14.01,2013-07-10 14:49:00,
2013-07-10 10:54:00,78.9,73.4,29.88,North,359,0.0,0.0,83,0.00,,---,0.00,VWS V14.01,2013-07-10 14:54:00,
2013-07-10 10:59:00,78.9,73.1,29.87,North,359,0.0,0.0,82,0.00,,---,0.00,VWS V14.01,2013-07-10 14:59:00,
2013-07-10 11:04:00,79.1,72.9,29.87,NW,304,6.0,7.3,81,0.00,,---,0.00,VWS V14.01,2013-07-10 15:04:00,
2013-07-10 11:09:00,79.0,73.1,29.87,North,359,2.4,4.6,82,0.00,,---,0.00,VWS V14.01,2013-07-10 15:09:00,
2013-07-10 11:14:00,79.8,72.9,29.87,North,359,0.0,0.0,80,0.00,,---,0.00,VWS V14.01,2013-07-10 15:14:00,
2013-07-10 11:19:00,80.3,73.1,29.87,North,359,0.0,0.0,79,0.00,,---,0.00,VWS V14.01,2013-07-10 15:19:00,
2013-07-10 11:24:00,80.2,72.6,29.87,North,359,0.0,0.0,78,0.00,,---,0.00,VWS V14.01,2013-07-10 15:24:00,
2013-07-10 11:29:00,80.2,72.3,29.86,North,359,0.0,0.0,77,0.00,,---,0.00,VWS V14.01,2013-07-10 15:29:00,
2013-07-10 11:34:00,81.1,72.4,29.86,North,359,8.9,8.9,75,0.00,,---,0.00,VWS V14.01,2013-07-10 15:34:00,
2013-07-10 11:39:00,80.1,70.4,29.86,SW,228,0.0,15.4,72,0.00,,---,0.00,VWS V14.01,2013-07-10 15:39:00,
2013-07-10 11:44:00,80.5,70.2,29.86,SW,228,0.0,0.0,71,53.96,,---,0.00,VWS V14.01,2013-07-10 15:44:00,
2013-07-10 11:49:00,80.4,69.8,29.86,North,359,13.5,13.5,70,0.00,,---,0.00,VWS V14.01,2013-07-10 15:49:00,
2013-07-10 11:54:00,80.4,70.3,29.86,North,359,0.0,0.0,71,0.00,,---,0.00,VWS V14.01,2013-07-10 15:54:00,
2013-07-10 11:59:00,80.4,70.7,29.85,North,359,0.0,0.0,72,0.00,,---,0.00,VWS V14.01,2013-07-10 15:59:00,
2013-07-10 12:04:00,80.8,70.5,29.85,North,359,0.0,3.7,71,0.00,,---,0.00,VWS V14.01,2013-07-10 16:04:00,
2013-07-10 12:09:00,81.1,71.0,29.85,North,359,0.0,0.0,71,0.00,,---,0.00,VWS V14.01,2013-07-10 16:09:00,
2013-07-10 12:14:00,81.1,71.2,29.85,North,359,0.0,0.0,72,0.00,,---,0.00,VWS V14.01,2013-07-10 16:14:00,
2013-07-10 12:19:00,80.1,69.7,29.85,North,359,0.0,0.0,71,0.00,,---,0.00,VWS V14.01,2013-07-10 16:19:00,
2013-07-10 12:24:00,81.1,70.7,29.85,North,359,0.0,0.0,71,0.00,,---,0.00,VWS V14.01,2013-07-10 16:24:00,
2013-07-10 12:29:00,81.9,71.3,29.84,North,359,0.0,0.0,70,0.00,,---,0.00,VWS V14.01,2013-07-10 16:29:00,
2013-07-10 12:34:00,82.1,70.1,29.84,North,359,0.0,2.0,67,0.00,,---,0.00,VWS V14.01,2013-07-10 16:34:00,
2013-07-10 12:39:00,83.1,70.3,29.84,North,359,0.0,0.0,65,0.00,,---,0.00,VWS V14.01,2013-07-10 16:39:00,
2013-07-10 12:44:00,82.9,70.1,29.84,North,359,0.0,0.7,65,53.96,,---,0.00,VWS V14.01,2013-07-10 16:44:00,
2013-07-10 12:49:00,83.8,69.8,29.84,North,359,1.4,1.4,63,0.00,,---,0.00,VWS V14.01,2013-07-10 16:49:00,
2013-07-10 12:54:00,82.7,68.6,29.84,North,359,0.0,0.0,62,0.00,,---,0.00,VWS V14.01,2013-07-10 16:54:00,
2013-07-10 12:59:00,82.5,67.6,29.84,North,359,1.5,8.0,61,0.00,,---,0.00,VWS V14.01,2013-07-10 16:59:00,
2013-07-10 13:04:00,83.4,68.3,29.83,North,359,2.1,11.5,60,0.00,,---,0.00,VWS V14.01,2013-07-10 17:04:00,
2013-07-10 13:09:00,84.1,69.1,29.83,WNW,294,5.2,6.4,61,0.00,,---,0.00,VWS V14.01,2013-07-10 17:09:00,
2013-07-10 13:14:00,83.9,69.1,29.83,WSW,256,4.0,6.5,61,0.00,,---,0.00,VWS V14.01,2013-07-10 17:14:00,
2013-07-10 13:19:00,83.9,69.1,29.82,SSW,202,2.8,9.3,61,0.00,,---,0.00,VWS V14.01,2013-07-10 17:19:00,
2013-07-10 13:24:00,84.4,69.8,29.82,WSW,256,3.4,5.8,62,0.00,,---,0.00,VWS V14.01,2013-07-10 17:24:00,
2013-07-10 13:29:00,83.6,68.9,29.82,WSW,242,4.2,6.3,61,0.00,,---,0.00,VWS V14.01,2013-07-10 17:29:00,
2013-07-10 13:34:00,82.3,67.6,29.82,South,191,8.7,12.2,61,0.00,,---,0.00,VWS V14.01,2013-07-10 17:34:00,
2013-07-10 13:39:00,83.0,68.9,29.82,WSW,255,3.4,8.3,63,0.00,,---,0.00,VWS V14.01,2013-07-10 17:39:00,
2013-07-10 13:44:00,83.4,69.2,29.82,WNW,295,3.5,3.7,62,53.96,,---,0.00,VWS V14.01,2013-07-10 17:44:00,
2013-07-10 13:49:00,83.1,68.4,29.82,West,276,5.1,5.1,61,0.00,,---,0.00,VWS V14.01,2013-07-10 17:49:00,
2013-07-10 13:54:00,83.0,66.8,29.82,West,263,6.6,8.9,58,0.00,,---,0.00,VWS V14.01,2013-07-10 17:54:00,
2013-07-10 13:59:00,82.6,66.9,29.82,SSW,211,6.0,12.5,59,0.00,,---,0.00,VWS V14.01,2013-07-10 17:59:00,
2013-07-10 14:04:00,82.4,67.2,29.82,North,359,0.0,0.0,60,0.00,,---,0.00,VWS V14.01,2013-07-10 18:04:00,
2013-07-10 14:09:00,83.3,67.8,29.82,North,359,0.0,0.0,60,0.00,,---,0.00,VWS V14.01,2013-07-10 18:09:00,
2013-07-10 14:14:00,82.5,66.6,29.82,North,359,0.0,1.1,59,0.00,,---,0.00,VWS V14.01,2013-07-10 18:14:00,
2013-07-10 14:19:00,81.9,67.4,29.82,NW,311,0.0,0.7,62,0.00,,---,0.00,VWS V14.01,2013-07-10 18:19:00,
2013-07-10 14:24:00,81.0,67.9,29.82,NW,322,0.9,13.3,64,0.00,,---,0.00,VWS V14.01,2013-07-10 18:24:00,
2013-07-10 14:29:00,81.0,68.5,29.82,West,260,5.1,8.8,66,0.00,,---,0.00,VWS V14.01,2013-07-10 18:29:00,
2013-07-10 14:34:00,80.5,67.8,29.81,West,270,5.4,7.2,65,0.00,,---,0.00,VWS V14.01,2013-07-10 18:34:00,
2013-07-10 14:39:00,80.8,68.2,29.81,West,277,1.6,3.4,66,0.00,,---,0.00,VWS V14.01,2013-07-10 18:39:00,
2013-07-10 14:44:00,80.9,67.6,29.81,WSW,245,4.4,6.1,64,53.96,,---,0.00,VWS V14.01,2013-07-10 18:44:00,
2013-07-10 14:49:00,80.4,66.6,29.81,North,359,5.5,8.0,63,0.00,,---,0.00,VWS V14.01,2013-07-10 18:49:00,
2013-07-10 14:54:00,81.3,67.6,29.80,WSW,238,13.3,13.3,63,0.00,,---,0.00,VWS V14.01,2013-07-10 18:54:00,
2013-07-10 14:59:00,81.8,67.5,29.81,West,262,7.7,7.7,62,0.00,,---,0.00,VWS V14.01,2013-07-10 18:59:00,
2013-07-10 15:04:00,81.9,67.7,29.80,WSW,253,6.6,11.9,62,0.00,,---,0.00,VWS V14.01,2013-07-10 19:04:00,
2013-07-10 15:09:00,81.3,67.2,29.80,WSW,238,3.4,5.5,62,0.00,,---,0.00,VWS V14.01,2013-07-10 19:09:00,
2013-07-10 15:14:00,82.3,67.8,29.80,WSW,243,3.0,8.6,62,0.00,,---,0.00,VWS V14.01,2013-07-10 19:14:00,
2013-07-10 15:19:00,80.4,65.3,29.81,WNW,302,8.9,10.1,60,0.00,,---,0.00,VWS V14.01,2013-07-10 19:19:00,
2013-07-10 15:24:00,81.8,67.5,29.81,WSW,249,7.8,10.1,62,0.00,,---,0.00,VWS V14.01,2013-07-10 19:24:00,
2013-07-10 15:29:00,81.2,67.7,29.81,SSW,212,10.7,10.7,64,0.00,,---,0.00,VWS V14.01,2013-07-10 19:29:00,
2013-07-10 15:34:00,82.2,68.4,29.80,SSW,205,4.7,4.8,63,0.00,,---,0.00,VWS V14.01,2013-07-10 19:34:00,
2013-07-10 15:39:00,83.2,69.3,29.80,West,276,6.3,7.7,63,0.00,,---,0.00,VWS V14.01,2013-07-10 19:39:00,
2013-07-10 15:44:00,81.4,67.2,29.80,WSW,243,3.9,4.4,62,53.96,,---,0.00,VWS V14.01,2013-07-10 19:44:00,
2013-07-10 15:49:00,81.8,67.5,29.80,West,276,5.8,7.0,62,0.00,,---,0.00,VWS V14.01,2013-07-10 19:49:00,
2013-07-10 15:54:00,82.2,67.1,29.80,WNW,297,3.0,6.1,60,0.00,,---,0.00,VWS V14.01,2013-07-10 19:54:00,
2013-07-10 15:59:00,82.4,67.6,29.79,SW,225,6.9,6.9,61,0.00,,---,0.00,VWS V14.01,2013-07-10 19:59:00,
2013-07-10 16:04:00,81.8,67.3,29.79,SSW,198,11.7,11.7,62,0.00,,---,0.00,VWS V14.01,2013-07-10 20:04:00,
2013-07-10 16:09:00,81.7,66.6,29.79,NW,305,2.9,2.9,60,0.00,,---,0.00,VWS V14.01,2013-07-10 20:09:00,
2013-07-10 16:14:00,83.3,68.3,29.79,North,359,0.4,0.4,61,0.00,,---,0.00,VWS V14.01,2013-07-10 20:14:00,
2013-07-10 16:19:00,83.1,67.1,29.78,North,359,0.0,0.0,58,0.00,,---,0.00,VWS V14.01,2013-07-10 20:19:00,
2013-07-10 16:24:00,82.5,65.6,29.78,North,359,0.0,0.0,57,0.00,,---,0.00,VWS V14.01,2013-07-10 20:24:00,
2013-07-10 16:29:00,82.6,66.6,29.78,SW,222,4.4,5.2,58,0.00,,---,0.00,VWS V14.01,2013-07-10 20:29:00,
2013-07-10 16:34:00,82.6,65.9,29.78,NNE,25,0.0,0.0,57,0.00,,---,0.00,VWS V14.01,2013-07-10 20:34:00,
2013-07-10 16:39:00,83.4,66.7,29.77,North,359,0.0,0.0,57,0.00,,---,0.00,VWS V14.01,2013-07-10 20:39:00,
2013-07-10 16:44:00,82.5,65.6,29.78,North,359,2.2,2.4,57,0.00,,---,0.00,VWS V14.01,2013-07-10 20:44:00,
2013-07-10 16:49:00,83.8,67.0,29.77,North,359,0.0,0.6,57,0.00,,---,0.00,VWS V14.01,2013-07-10 20:49:00,
2013-07-10 16:54:00,84.3,66.6,29.77,WSW,250,9.7,11.2,55,0.00,,---,0.00,VWS V14.01,2013-07-10 20:54:00,
2013-07-10 16:59:00,84.4,67.0,29.77,WNW,288,7.3,8.0,56,0.00,,---,0.00,VWS V14.01,2013-07-10 20:59:00,
2013-07-10 17:04:00,83.5,65.9,29.77,NNW,328,4.5,9.1,55,0.00,,---,0.00,VWS V14.01,2013-07-10 21:04:00,
2013-07-10 17:09:00,84.1,66.9,29.77,WNW,297,8.8,11.9,56,0.00,,---,0.00,VWS V14.01,2013-07-10 21:09:00,
2013-07-10 17:14:00,83.3,66.6,29.76,South,186,5.3,9.1,57,0.00,,---,0.00,VWS V14.01,2013-07-10 21:14:00,
2013-07-10 17:19:00,82.4,65.6,29.77,North,359,8.1,8.7,57,0.00,,---,0.00,VWS V14.01,2013-07-10 21:19:00,
2013-07-10 17:24:00,83.3,66.5,29.76,West,263,8.1,12.9,57,53.96,,---,0.00,VWS V14.01,2013-07-10 21:24:00,
2013-07-10 17:29:00,82.5,65.4,29.76,NNW,328,10.7,10.7,56,0.00,,---,0.00,VWS V14.01,2013-07-10 21:29:00,
2013-07-10 17:34:00,84.0,67.0,29.76,North,359,0.0,0.9,57,0.00,,---,0.00,VWS V14.01,2013-07-10 21:34:00,
2013-07-10 17:39:00,84.3,66.8,29.76,WSW,242,9.1,15.8,56,0.00,,---,0.00,VWS V14.01,2013-07-10 21:39:00,
2013-07-10 17:44:00,82.7,65.6,29.76,WNW,291,5.5,6.4,56,0.00,,---,0.00,VWS V14.01,2013-07-10 21:44:00,
2013-07-10 17:48:00,83.0,66.0,29.76,SSW,200,0.0,0.0,56,0.00,,---,0.00,VWS V14.01,2013-07-10 21:48:00,
2013-07-10 17:53:00,83.6,66.6,29.76,SSW,200,0.0,0.0,57,0.00,,---,0.00,VWS V14.01,2013-07-10 21:53:00,
2013-07-10 17:58:00,83.1,66.2,29.76,North,359,0.0,0.0,57,0.00,,---,0.00,VWS V14.01,2013-07-10 21:58:00,
2013-07-10 18:03:00,82.7,65.3,29.76,North,359,0.6,1.1,56,0.00,,---,0.00,VWS V14.01,2013-07-10 22:03:00,
2013-07-10 18:08:00,83.8,65.9,29.75,West,274,11.9,12.9,55,0.00,,---,0.00,VWS V14.01,2013-07-10 22:08:00,
2013-07-10 18:13:00,82.4,64.9,29.75,North,359,1.0,12.4,56,0.00,,---,0.00,VWS V14.01,2013-07-10 22:13:00,
2013-07-10 18:18:00,82.9,65.4,29.76,North,359,2.8,5.0,56,0.00,,---,0.00,VWS V14.01,2013-07-10 22:18:00,
2013-07-10 18:23:00,83.3,66.1,29.76,West,264,6.8,7.4,56,0.00,,---,0.00,VWS V14.01,2013-07-10 22:23:00,
2013-07-10 18:28:00,84.3,67.2,29.76,North,359,0.0,0.0,57,0.00,,---,0.00,VWS V14.01,2013-07-10 22:28:00,
2013-07-10 18:33:00,83.1,66.4,29.77,North,359,0.0,0.0,57,0.00,,---,0.00,VWS V14.01,2013-07-10 22:33:00,
2013-07-10 18:38:00,83.6,67.2,29.77,North,359,0.0,0.0,58,0.00,,---,0.00,VWS V14.01,2013-07-10 22:38:00,
2013-07-10 18:43:00,83.3,67.1,29.77,North,359,0.0,0.0,58,0.00,,---,0.00,VWS V14.01,2013-07-10 22:43:00,
2013-07-10 18:48:00,83.6,67.6,29.77,North,359,0.0,0.0,59,0.00,,---,0.00,VWS V14.01,2013-07-10 22:48:00,
2013-07-10 18:53:00,82.9,67.3,29.77,North,359,0.0,0.0,59,0.00,,---,0.00,VWS V14.01,2013-07-10 22:53:00,
2013-07-10 18:58:00,83.3,67.9,29.78,North,359,0.0,0.0,60,0.00,,---,0.00,VWS V14.01,2013-07-10 22:58:00,
2013-07-10 19:03:00,82.8,67.8,29.78,North,359,0.0,0.0,60,0.00,,---,0.00,VWS V14.01,2013-07-10 23:03:00,
2013-07-10 19:08:00,82.6,67.9,29.78,North,359,0.0,0.0,61,0.00,,---,0.00,VWS V14.01,2013-07-10 23:08:00,
2013-07-10 19:13:00,82.7,68.3,29.79,North,359,0.0,0.0,62,0.00,,---,0.00,VWS V14.01,2013-07-10 23:13:00,
2013-07-10 19:18:00,82.2,68.0,29.79,North,359,0.0,0.0,62,0.00,,---,0.00,VWS V14.01,2013-07-10 23:18:00,
2013-07-10 19:23:00,82.0,68.1,29.78,North,359,0.0,0.0,63,0.00,,---,0.00,VWS V14.01,2013-07-10 23:23:00,
2013-07-10 19:28:00,82.8,68.9,29.78,North,359,0.0,0.0,63,0.00,,---,0.00,VWS V14.01,2013-07-10 23:28:00,
2013-07-10 19:33:00,82.2,68.5,29.78,North,359,0.0,0.0,63,0.00,,---,0.00,VWS V14.01,2013-07-10 23:33:00,
2013-07-10 19:38:00,82.9,69.2,29.79,North,359,0.0,0.0,64,0.00,,---,0.00,VWS V14.01,2013-07-10 23:38:00,
2013-07-10 19:43:00,81.8,68.5,29.78,North,359,0.0,0.0,64,0.00,,---,0.00,VWS V14.01,2013-07-10 23:43:00,
2013-07-10 19:48:00,82.4,69.3,29.78,North,359,0.0,0.0,65,0.00,,---,0.00,VWS V14.01,2013-07-10 23:48:00,
2013-07-10 19:53:00,81.4,68.7,29.78,North,359,0.0,0.0,65,0.00,,---,0.00,VWS V14.01,2013-07-10 23:53:00,
2013-07-10 19:58:00,81.2,68.6,29.78,North,359,0.0,0.0,66,0.00,,---,0.00,VWS V14.01,2013-07-10 23:58:00,
2013-07-10 20:03:00,81.3,69.1,29.78,North,359,0.0,0.0,66,0.00,,---,0.00,VWS V14.01,2013-07-11 00:03:00,
2013-07-10 20:08:00,81.2,69.2,29.78,North,359,0.0,0.0,67,0.00,,---,0.00,VWS V14.01,2013-07-11 00:08:00,
2013-07-10 20:13:00,81.6,70.0,29.78,North,359,0.0,0.0,68,0.00,,---,0.00,VWS V14.01,2013-07-11 00:13:00,
2013-07-10 20:18:00,82.1,70.8,29.79,North,359,0.0,0.0,69,0.00,,---,0.00,VWS V14.01,2013-07-11 00:18:00,
2013-07-10 20:23:00,80.5,69.5,29.78,North,359,0.0,0.0,69,0.00,,---,0.00,VWS V14.01,2013-07-11 00:23:00,
2013-07-10 20:28:00,81.3,70.6,29.78,North,359,0.0,0.0,70,0.00,,---,0.00,VWS V14.01,2013-07-11 00:28:00,
2013-07-10 20:33:00,80.5,70.0,29.78,North,359,0.0,0.0,70,0.00,,---,0.00,VWS V14.01,2013-07-11 00:33:00,
2013-07-10 20:38:00,80.4,70.1,29.78,North,359,0.0,0.0,71,0.00,,---,0.00,VWS V14.01,2013-07-11 00:38:00,
2013-07-10 20:43:00,80.5,70.5,29.78,North,359,0.0,0.0,72,0.00,,---,0.00,VWS V14.01,2013-07-11 00:43:00,
2013-07-10 20:48:00,80.4,70.6,29.78,North,359,0.0,0.0,72,0.00,,---,0.00,VWS V14.01,2013-07-11 00:48:00,
2013-07-10 20:53:00,80.4,70.8,29.78,North,359,0.0,0.0,72,0.00,,---,0.00,VWS V14.01,2013-07-11 00:53:00,
2013-07-10 20:58:00,80.0,70.6,29.78,North,359,0.0,0.0,73,0.00,,---,0.00,VWS V14.01,2013-07-11 00:58:00,
2013-07-10 21:03:00,80.8,71.6,29.79,North,359,0.0,0.0,74,0.00,,---,0.00,VWS V14.01,2013-07-11 01:03:00,
2013-07-10 21:08:00,80.1,71.2,29.79,North,359,0.0,0.0,74,0.00,,---,0.00,VWS V14.01,2013-07-11 01:08:00,
2013-07-10 21:13:00,79.9,71.2,29.79,North,359,0.0,0.0,75,0.00,,---,0.00,VWS V14.01,2013-07-11 01:13:00,
2013-07-10 21:18:00,79.8,71.3,29.79,North,359,0.0,0.0,75,0.00,,---,0.00,VWS V14.01,2013-07-11 01:18:00,
2013-07-10 21:20:00,79.4,72.2,29.79,North,359,0.0,0.0,79,0.00,,---,0.00,VWS V14.01,2013-07-11 01:20:00,
2013-07-10 21:23:00,80.4,72.1,29.79,North,359,0.0,0.0,76,0.00,,---,0.00,VWS V14.01,2013-07-11 01:23:00,
2013-07-10 21:28:00,79.4,71.3,29.79,North,359,0.0,0.0,76,0.00,,---,0.00,VWS V14.01,2013-07-11 01:28:00,
2013-07-10 21:33:00,79.0,71.2,29.79,North,359,0.0,0.0,77,0.00,,---,0.00,VWS V14.01,2013-07-11 01:33:00,
2013-07-10 21:38:00,80.1,72.5,29.79,North,359,0.0,0.0,78,0.00,,---,0.00,VWS V14.01,2013-07-11 01:38:00,
2013-07-10 21:43:00,80.1,72.7,29.79,North,359,0.0,0.0,78,0.00,,---,0.00,VWS V14.01,2013-07-11 01:43:00,
2013-07-10 21:48:00,78.0,70.8,29.80,North,359,0.0,0.0,79,0.00,,---,0.00,VWS V14.01,2013-07-11 01:48:00,
2013-07-10 21:53:00,78.8,71.8,29.80,North,359,0.0,0.0,79,0.00,,---,0.00,VWS V14.01,2013-07-11 01:53:00,
2013-07-10 21:58:00,79.1,72.3,29.80,North,359,0.0,0.0,80,0.00,,---,0.00,VWS V14.01,2013-07-11 01:58:00,
2013-07-10 22:03:00,79.5,72.8,29.80,North,359,0.0,0.0,80,0.00,,---,0.00,VWS V14.01,2013-07-11 02:03:00,
2013-07-10 22:08:00,78.9,72.2,29.79,North,359,0.0,0.0,80,0.00,,---,0.00,VWS V14.01,2013-07-11 02:08:00,
2013-07-10 22:13:00,78.8,72.0,29.79,North,359,0.0,0.0,80,0.00,,---,0.00,VWS V14.01,2013-07-11 02:13:00,
2013-07-10 22:18:00,79.2,72.2,29.79,North,359,0.0,0.0,79,0.00,,---,0.00,VWS V14.01,2013-07-11 02:18:00,
2013-07-10 22:23:00,78.9,71.7,29.79,North,359,0.0,0.0,79,0.00,,---,0.00,VWS V14.01,2013-07-11 02:23:00,
2013-07-10 22:24:00,78.3,71.2,29.79,North,359,0.0,0.0,79,0.00,,---,0.00,VWS V14.01,2013-07-11 02:24:00,
2013-07-10 22:28:00,78.8,71.6,29.79,North,359,0.0,0.0,79,0.00,,---,0.00,VWS V14.01,2013-07-11 02:28:00,
2013-07-10 22:33:00,79.1,71.9,29.79,North,359,0.0,0.0,79,0.00,,---,0.00,VWS V14.01,2013-07-11 02:33:00,
2013-07-10 22:38:00,79.1,72.0,29.79,North,359,0.0,0.0,79,0.00,,---,0.00,VWS V14.01,2013-07-11 02:38:00,
2013-07-10 22:43:00,79.7,72.6,29.79,North,359,0.0,0.0,79,0.00,,---,0.00,VWS V14.01,2013-07-11 02:43:00,
2013-07-10 22:48:00,79.0,71.9,29.78,North,359,0.0,0.0,79,0.00,,---,0.00,VWS V14.01,2013-07-11 02:48:00,
2013-07-10 22:53:00,79.4,72.2,29.78,North,359,0.0,0.0,79,0.00,,---,0.00,VWS V14.01,2013-07-11 02:53:00,
2013-07-10 22:58:00,78.2,71.1,29.78,North,359,0.0,0.0,79,0.00,,---,0.00,VWS V14.01,2013-07-11 02:58:00,
2013-07-10 23:03:00,78.4,71.3,29.78,North,359,0.0,0.0,79,0.00,,---,0.00,VWS V14.01,2013-07-11 03:03:00,
2013-07-10 23:08:00,78.7,71.6,29.78,North,359,0.0,0.0,79,0.00,,---,0.00,VWS V14.01,2013-07-11 03:08:00,
2013-07-10 23:13:00,78.9,71.9,29.77,North,359,0.0,0.0,79,74.03,,---,0.00,VWS V14.01,2013-07-11 03:13:00,
2013-07-10 23:18:00,78.2,71.3,29.77,North,359,0.0,0.0,79,0.00,,---,0.00,VWS V14.01,2013-07-11 03:18:00,
2013-07-10 23:23:00,78.2,71.5,29.77,North,359,0.0,0.0,80,0.00,,---,0.00,VWS V14.01,2013-07-11 03:23:00,
2013-07-10 23:28:00,78.3,71.7,29.77,North,359,0.0,0.0,80,0.00,,---,0.00,VWS V14.01,2013-07-11 03:28:00,
2013-07-10 23:33:00,78.4,71.8,29.77,North,359,0.0,0.0,80,0.00,,---,0.00,VWS V14.01,2013-07-11 03:33:00,
2013-07-10 23:38:00,79.1,72.5,29.77,North,359,0.0,0.0,80,44.95,,---,0.00,VWS V14.01,2013-07-11 03:38:00,
2013-07-10 23:43:00,78.3,71.8,29.77,North,359,0.0,0.0,80,0.00,,---,0.00,VWS V14.01,2013-07-11 03:43:00,
2013-07-10 23:48:00,77.7,71.2,29.77,North,359,0.0,0.0,80,0.00,,---,0.00,VWS V14.01,2013-07-11 03:48:00,
2013-07-10 23:53:00,78.0,71.4,29.77,North,359,0.0,0.0,80,0.00,,---,0.00,VWS V14.01,2013-07-11 03:53:00,
2013-07-10 23:58:00,78.0,71.4,29.77,North,359,0.0,0.0,80,0.00,,---,0.00,VWS V14.01,2013-07-11 03:58:00,